MDT,Max TemperatureF,Mean TemperatureF,Min TemperatureF,Max Dew PointF,MeanDew PointF,Min DewpointF,Max Humidity, Mean Humidity, Min Humidity, Max Sea Level PressureIn, Mean Sea Level PressureIn, Min Sea Level PressureIn, Max VisibilityMiles, Mean VisibilityMiles, Min VisibilityMiles, Max Wind SpeedMPH, Mean Wind SpeedMPH, Max Gust SpeedMPH,PrecipitationIn, CloudCover, Events, WindDirDegrees
2013-7-1,83,72,61,56,53,47,78,53,36,30.25,30.19,30.15,10,10,10,15,9,21,0.00,4,,151
2013-7-2,85,71,57,55,50,47,72,47,27,30.18,30.10,30.03,10,10,10,10,6,,0.00,1,,144
2013-7-3,91,76,60,53,49,46,68,40,21,30.01,29.87,29.78,10,10,10,14,6,25,0.00,1,,171
2013-7-4,87,74,62,75,58,47,100,56,36,29.91,29.83,29.75,10,10,7,26,10,34,0.01,3,Rain-Thunderstorm,298
2013-7-5,87,77,67,65,60,56,83,65,34,29.89,29.77,29.69,10,10,10,15,5,23,0.02,5,Rain,158
2013-7-6,88,74,60,64,58,52,93,54,29,29.88,29.79,29.70,10,10,10,22,9,26,0.00,1,,355
2013-7-7,84,74,65,64,60,55,88,65,42,30.10,29.95,29.87,10,10,10,18,7,26,0.01,4,Rain,81
2013-7-8,87,74,62,68,62,56,94,72,37,30.08,30.01,29.90,10,10,2,37,11,47,0.32,6,Rain-Thunderstorm,213
2013-7-9,84,70,57,57,55,52,92,58,33,30.17,30.06,29.97,10,10,10,20,10,24,0.01,1,Rain,346
2013-7-10,89,73,58,65,59,53,94,65,32,30.19,30.07,29.90,10,10,7,23,9,29,0.00,2,Rain-Thunderstorm,178
2013-7-11,99,84,69,66,59,50,77,45,22,29.93,29.81,29.67,10,10,10,34,13,47,0.00,2,Rain,182
2013-7-12,89,80,68,62,56,52,71,46,29,29.96,29.81,29.62,10,10,10,30,16,40,0.00,2,Rain,340
2013-7-13,93,79,65,63,61,54,77,49,34,30.04,29.92,29.85,10,10,10,21,8,25,0.00,3,Thunderstorm,135
2013-7-14,71,68,63,63,59,57,85,79,68,30.26,30.21,30.01,10,10,10,24,15,32,0.00,8,Thunderstorm,344
2013-7-15,89,76,64,66,61,55,91,73,40,30.21,30.10,29.92,10,10,10,22,8,33,0.00,5,,177
2013-7-16,91,77,63,58,52,48,59,41,24,30.11,30.03,29.98,10,10,10,17,12,30,0.00,0,,170
2013-7-17,92,79,66,59,57,55,74,47,29,30.18,30.05,29.96,10,10,10,21,11,28,0.00,0,,172
2013-7-18,93,82,70,64,58,51,64,45,25,30.06,29.93,29.88,10,10,10,24,11,32,0.00,0,Thunderstorm,317
2013-7-19,89,76,64,63,58,50,86,56,27,30.12,30.00,29.88,10,9,2,17,8,40,0.12,4,Rain-Thunderstorm,193
2013-7-20,84,74,64,64,62,58,100,72,42,30.01,29.92,29.81,10,10,9,18,9,33,0.10,5,Rain-Thunderstorm,89
2013-7-21,91,77,63,65,60,52,96,65,30,29.97,29.82,29.69,10,10,9,22,9,36,0.04,2,Rain-Thunderstorm,197
2013-7-22,89,75,61,62,56,48,90,53,25,29.98,29.89,29.82,10,10,10,30,11,32,0.00,4,Rain-Thunderstorm,100
2013-7-23,85,72,59,63,59,55,91,68,35,30.04,29.99,29.91,10,10,6,23,10,37,0.07,3,Rain-Thunderstorm,107
2013-7-24,87,74,60,60,55,46,90,55,24,30.10,30.03,29.96,10,10,9,16,8,,0.00,1,,55
2013-7-25,82,70,59,59,55,50,94,69,34,30.18,30.08,29.90,15,9,4,33,18,39,0.04,5,Rain-Thunderstorm,357
2013-7-26,73,62,52,52,47,45,94,63,38,30.32,30.24,30.17,10,9,2,20,7,23,0.24,3,Rain-Thunderstorm,47
2013-7-27,75,64,52,52,47,45,77,52,38,30.22,30.11,29.98,10,10,10,18,9,26,0.00,1,,154
2013-7-28,78,66,53,58,54,48,87,65,47,29.96,29.90,29.85,10,10,10,18,11,25,0.00,4,,158
2013-7-29,84,71,58,58,55,53,93,57,34,30.00,29.92,29.85,10,10,10,21,11,28,0.00,0,,352
2013-7-30,87,73,59,66,60,53,84,65,35,30.22,30.08,29.97,10,10,8,21,8,31,0.06,4,Rain-Thunderstorm,44
2013-7-31,84,72,59,61,54,49,90,58,30,30.23,30.16,30.08,10,10,10,18,9,22,0.00,2,,352